Stations météo

réclame
Mon MeteoGroup
Achnagart, Grande-Bretagne (99191): Température de l'air & dewpoint: 20.09.2018 10:00:00 - 26.09.2018 10:00:00 (BST)Achnagart, Grande-Bretagne (99191): Quantités de précipitations: 20.09.2018 10:00:00 - 26.09.2018 10:00:00 (BST)
Date & Time tt [°C] td [°C] rr [mm]
26.09.2018 10:00:00 - - -
26.09.2018 09:00:00 15,0 13,2 0,4
26.09.2018 08:00:00 15,6 13,2 0,0
26.09.2018 07:00:00 15,8 13,3 0,4
26.09.2018 06:00:00 15,5 13,5 4,2
26.09.2018 05:00:00 15,8 13,7 2,2
26.09.2018 04:00:00 15,6 13,7 2,2
26.09.2018 03:00:00 15,9 13,7 2,6
26.09.2018 02:00:00 16,0 13,8 6,0
26.09.2018 01:00:00 16,3 13,6 0,8
26.09.2018 00:00:00 16,2 13,4 0,4
25.09.2018 23:00:00 15,9 13,4 1,0
25.09.2018 22:00:00 14,7 13,1 1,8
25.09.2018 21:00:00 14,7 12,6 1,6
25.09.2018 20:00:00 14,4 11,9 1,4
25.09.2018 19:00:00 14,3 11,4 0,8
25.09.2018 18:00:00 14,4 10,9 0,2
25.09.2018 17:00:00 14,1 10,7 0,4
25.09.2018 16:00:00 13,6 10,2 0,2
25.09.2018 15:00:00 12,3 9,7 0,4
25.09.2018 14:00:00 12,2 9,4 0,0
25.09.2018 13:00:00 10,4 8,6 3,4
25.09.2018 12:00:00 11,8 5,8 0,0
25.09.2018 11:00:00 12,8 3,2 0,0
25.09.2018 10:00:00 12,3 2,3 0,0
25.09.2018 09:00:00 11,8 3,2 0,0
25.09.2018 08:00:00 11,3 4,3 0,0
25.09.2018 07:00:00 11,2 4,0 0,0
25.09.2018 06:00:00 11,4 4,7 0,0
25.09.2018 05:00:00 11,3 5,9 0,0
25.09.2018 04:00:00 11,4 5,1 0,0
25.09.2018 03:00:00 11,1 5,9 0,0
25.09.2018 02:00:00 11,1 6,3 0,2
25.09.2018 01:00:00 10,2 7,4 0,0
25.09.2018 00:00:00 10,3 8,0 0,2
24.09.2018 23:00:00 10,9 7,4 0,0
24.09.2018 22:00:00 9,9 7,8 0,0
24.09.2018 21:00:00 10,1 7,6 0,0
24.09.2018 20:00:00 9,2 7,9 0,2
24.09.2018 19:00:00 10,5 7,2 0,2
24.09.2018 18:00:00 10,0 7,9 1,4
24.09.2018 17:00:00 11,6 5,8 0,0
24.09.2018 16:00:00 12,6 6,1 0,0
24.09.2018 15:00:00 12,3 5,9 0,0
24.09.2018 14:00:00 11,9 6,0 0,0
24.09.2018 13:00:00 10,9 5,6 0,2
24.09.2018 12:00:00 10,4 6,7 0,0
24.09.2018 11:00:00 10,6 5,1 0,0
24.09.2018 10:00:00 10,0 5,3 0,0
24.09.2018 09:00:00 9,0 5,2 0,0
24.09.2018 08:00:00 8,4 5,2 0,0
24.09.2018 07:00:00 7,7 4,8 0,0
24.09.2018 06:00:00 8,6 5,1 0,0
24.09.2018 05:00:00 8,1 5,2 0,4
24.09.2018 04:00:00 8,0 5,3 0,0
24.09.2018 03:00:00 8,2 5,1 0,4
24.09.2018 02:00:00 7,5 5,1 0,0
24.09.2018 01:00:00 7,7 4,6 0,0
24.09.2018 00:00:00 8,1 4,0 0,0
23.09.2018 23:00:00 6,6 4,4 0,0
23.09.2018 22:00:00 4,7 4,5 0,2
23.09.2018 21:00:00 4,8 4,2 0,0
23.09.2018 20:00:00 6,0 4,2 0,0
23.09.2018 19:00:00 7,8 6,2 0,8
23.09.2018 18:00:00 9,5 5,1 0,0
23.09.2018 17:00:00 9,8 5,4 0,0
23.09.2018 16:00:00 10,4 4,8 0,0
23.09.2018 15:00:00 12,0 7,1 0,6
23.09.2018 14:00:00 10,5 6,0 0,0
23.09.2018 13:00:00 10,0 7,2 0,6
23.09.2018 12:00:00 9,2 6,2 1,2
23.09.2018 11:00:00 8,5 6,7 0,2
23.09.2018 10:00:00 7,5 6,9 0,0
23.09.2018 09:00:00 6,1 6,1 0,0
23.09.2018 08:00:00 5,6 5,6 1,4
23.09.2018 07:00:00 4,7 4,6 0,0
23.09.2018 06:00:00 4,9 4,8 0,0
23.09.2018 05:00:00 5,0 4,9 0,0
23.09.2018 04:00:00 4,9 4,8 0,0
23.09.2018 03:00:00 4,6 4,5 0,0
23.09.2018 02:00:00 4,4 4,3 0,0
23.09.2018 01:00:00 4,4 4,2 0,0
23.09.2018 00:00:00 5,2 5,0 0,2
22.09.2018 23:00:00 5,6 5,3 0,0
22.09.2018 22:00:00 6,0 5,4 0,0
22.09.2018 21:00:00 7,1 6,5 1,6
22.09.2018 20:00:00 6,6 5,3 0,0
22.09.2018 19:00:00 8,8 6,2 0,0
22.09.2018 18:00:00 10,4 5,7 0,0
22.09.2018 17:00:00 10,9 4,4 0,0
22.09.2018 16:00:00 10,4 4,9 0,0
22.09.2018 15:00:00 11,4 4,8 0,0
22.09.2018 14:00:00 10,2 6,6 0,8
22.09.2018 13:00:00 12,0 6,3 0,2
22.09.2018 12:00:00 11,8 4,4 0,0
22.09.2018 11:00:00 9,6 5,1 0,0
22.09.2018 10:00:00 9,5 4,7 0,0
22.09.2018 09:00:00 9,4 4,9 0,0
22.09.2018 08:00:00 9,2 4,0 0,0
22.09.2018 07:00:00 8,8 3,6 0,0
22.09.2018 06:00:00 8,7 3,9 0,2
22.09.2018 05:00:00 7,5 5,3 1,6
22.09.2018 04:00:00 8,1 5,5 0,8
22.09.2018 03:00:00 8,2 5,6 0,4
22.09.2018 02:00:00 8,7 4,7 0,2
22.09.2018 01:00:00 9,5 4,7 0,0
22.09.2018 00:00:00 8,9 5,1 0,2
21.09.2018 23:00:00 9,0 4,2 0,0
21.09.2018 22:00:00 9,7 4,9 0,0
21.09.2018 21:00:00 8,5 5,4 0,8
21.09.2018 20:00:00 9,3 5,3 1,6
21.09.2018 19:00:00 8,2 6,7 0,4
21.09.2018 18:00:00 10,0 6,3 0,0
21.09.2018 17:00:00 10,0 6,8 0,2
21.09.2018 16:00:00 9,9 6,5 0,6
21.09.2018 15:00:00 10,5 7,6 0,4
21.09.2018 14:00:00 9,4 6,7 0,6
21.09.2018 13:00:00 10,8 8,0 0,0
21.09.2018 12:00:00 9,5 6,9 0,2
21.09.2018 11:00:00 9,5 7,8 0,0
21.09.2018 10:00:00 8,2 7,4 0,4
21.09.2018 09:00:00 7,4 7,2 0,0
21.09.2018 08:00:00 5,8 5,5 0,0
21.09.2018 07:00:00 5,8 5,6 0,0
21.09.2018 06:00:00 5,0 4,9 0,0
21.09.2018 05:00:00 5,3 5,2 0,0
21.09.2018 04:00:00 6,2 6,1 0,2
21.09.2018 03:00:00 6,1 6,0 0,2
21.09.2018 02:00:00 5,8 5,6 0,0
21.09.2018 01:00:00 5,9 5,6 0,0
21.09.2018 00:00:00 6,8 6,3 0,0
20.09.2018 23:00:00 7,3 6,8 0,0
20.09.2018 22:00:00 7,8 6,5 0,0
20.09.2018 21:00:00 8,2 7,0 0,2
20.09.2018 20:00:00 8,9 6,8 0,0
20.09.2018 19:00:00 9,8 7,0 0,2
20.09.2018 18:00:00 11,6 5,6 0,0
20.09.2018 17:00:00 12,4 4,4 0,0
20.09.2018 16:00:00 12,1 5,1 0,2
20.09.2018 15:00:00 11,8 6,3 0,2
20.09.2018 14:00:00 12,1 5,7 0,2
20.09.2018 13:00:00 9,8 6,4 1,2
20.09.2018 12:00:00 11,2 5,6 1,0
20.09.2018 11:00:00 11,0 5,7 0,4
20.09.2018 10:00:00 11,1 5,5 1,6

tt = Température de l'air
td = dewpoint
rr = Quantités de précipitations

stations d'obs. à proximité